FW0879 Weather Reports


time (UTC)temp
C
wind
direction
speed
KPH
gust
KPH
rain 1hr
cm
rain 24hr
cm
rain mn
cm
humidity
%
barometer
mb
20260507142402 19 53 8.0 19.3 0.00 0.03 0.03 74 1008.6
20260507141902 19 54 9.7 19.3 0.00 0.03 0.03 72 1008.6
20260507141403 19 41 9.7 16.1 0.00 0.03 0.03 73 1008.7
20260507140903 19 39 11.3 19.3 0.00 0.03 0.03 72 1008.7
20260507140403 19 63 14.5 22.5 0.00 0.03 0.03 72 1008.7
20260507135903 19 33 12.9 19.3 0.00 0.03 0.03 72 1008.7
20260507135403 19 16 9.7 19.3 0.00 0.03 0.03 73 1008.8
20260507134902 19 70 9.7 19.3 0.00 0.03 0.03 73 1008.9
20260507133903 19 61 11.3 16.1 0.00 0.03 0.03 74 1008.8
20260507133403 19 30 11.3 19.3 0.00 0.03 0.03 74 1008.9
20260507132902 19 39 11.3 19.3 0.03 0.03 0.03 73 1008.9
20260507132403 18 19 11.3 19.3 0.03 0.03 0.03 74 1009.1
20260507131903 18 29 12.9 19.3 0.03 0.03 0.03 74 1009.2
20260507131403 19 70 11.3 19.3 0.03 0.03 0.03 73 1009.2
20260507130403 18 17 11.3 20.9 0.03 0.03 0.03 75 1009.5
20260507125903 18 28 14.5 22.5 0.03 0.03 0.03 76 1009.5
20260507125403 18 27 11.3 22.5 0.03 0.03 0.03 77 1009.5
20260507124903 18 28 9.7 16.1 0.03 0.03 0.03 79 1009.5
20260507124403 18 35 17.7 20.9 0.03 0.03 0.03 78 1009.5
20260507123402 18 38 14.5 20.9 0.03 0.03 0.03 78 1009.5
20260507122903 18 33 16.1 25.7 0.00 0.00 0.00 75 1009.6
20260507122402 18 33 16.1 20.9 0.00 0.00 0.00 76 1009.6
20260507121903 19 28 14.5 20.9 0.00 0.00 0.00 75 1009.6
20260507121402 19 42 9.7 16.1 0.00 0.00 0.00 73 1009.6
20260507120902 19 3 8.0 16.1 0.00 0.00 0.00 74 1009.6
20260507120403 20 50 14.5 22.5 0.00 0.00 0.00 73 1009.7
20260507115903 20 40 8.0 19.3 0.00 0.00 0.00 73 1009.7
20260507115402 19 22 8.0 19.3 0.00 0.00 0.00 74 1009.9
20260507114903 19 41 8.0 19.3 0.00 0.00 0.00 74 1010.0
20260507114403 19 63 11.3 19.3 0.00 0.00 0.00 74 1009.9
20260507113903 19 35 9.7 19.3 0.00 0.00 0.00 73 1010.1
20260507113403 19 28 6.4 16.1 0.00 0.00 0.00 74 1010.1
20260507112403 19 59 9.7 19.3 0.00 0.00 0.00 73 1010.1
20260507111904 19 41 8.0 12.9 0.00 0.00 0.00 73 1010.2
20260507111403 19 7 6.4 16.1 0.00 0.00 0.00 73 1010.2
20260507110903 19 2 4.8 16.1 0.00 0.00 0.00 75 1010.3
20260507110402 19 52 6.4 12.9 0.00 0.00 0.00 74 1010.2
20260507105903 19 41 8.0 14.5 0.00 0.00 0.00 74 1010.2
20260507104903 19 61 4.8 14.5 0.00 0.00 0.00 75 1010.3
20260507104403 18 55 8.0 16.1 0.00 0.00 0.00 75 1010.2
20260507103903 19 57 8.0 12.9 0.00 0.00 0.00 74 1010.3
20260507103403 19 72 8.0 12.9 0.00 0.00 0.00 74 1010.4
20260507102903 19 65 8.0 12.9 0.00 0.00 0.00 76 1010.4
20260507101903 19 40 9.7 12.9 0.00 0.00 0.00 75 1010.3
20260507100403 19 52 8.0 11.3 0.00 0.00 0.00 75 1010.4
20260507095403 19 1 11.3 14.5 0.00 0.00 0.00 76 1010.5
20260507094903 19 53 8.0 12.9 0.00 0.00 0.00 75 1010.4
20260507094403 19 68 6.4 11.3 0.00 0.00 0.00 75 1010.6
20260507093904 19 33 6.4 14.5 0.00 0.00 0.00 73 1010.5
20260507093403 19 15 9.7 14.5 0.00 0.00 0.00 74 1010.6
20260507092903 19 31 3.2 11.3 0.00 0.00 0.00 76 1010.6
20260507092403 18 12 8.0 16.1 0.00 0.00 0.00 76 1010.5
20260507091903 18 14 9.7 14.5 0.00 0.00 0.00 76 1010.4
20260507091403 18 23 9.7 14.5 0.00 0.00 0.00 76 1010.3
20260507090903 18 11 8.0 11.3 0.00 0.00 0.00 76 1010.5
20260507090403 18 345 8.0 12.9 0.00 0.00 0.00 77 1010.6
20260507085903 18 31 9.7 16.1 0.00 0.00 0.00 77 1010.6
20260507084903 18 37 8.0 12.9 0.00 0.00 0.00 75 1010.6
20260507084403 18 22 3.2 12.9 0.00 0.00 0.00 75 1010.6
20260507083903 18 347 6.4 12.9 0.00 0.00 0.00 75 1010.5
20260507083403 18 342 8.0 12.9 0.00 0.00 0.00 75 1010.4
20260507082903 18 304 4.8 9.7 0.00 0.00 0.00 75 1010.4
20260507082403 18 314 6.4 12.9 0.00 0.00 0.00 75 1010.3
20260507081903 18 334 6.4 12.9 0.00 0.00 0.00 75 1010.2
20260507081403 18 316 8.0 14.5 0.00 0.00 0.00 75 1010.2
20260507080903 18 270 8.0 16.1 0.00 0.00 0.00 75 1010.3
20260507080403 18 306 4.8 16.1 0.00 0.00 0.00 75 1010.2
20260507075903 17 313 6.4 14.5 0.00 0.00 0.00 75 1010.3
20260507075403 17 302 9.7 16.1 0.00 0.00 0.00 75 1010.3
20260507074903 18 289 8.0 14.5 0.00 0.00 0.00 75 1010.2
20260507074403 17 312 6.4 11.3 0.00 0.00 0.00 75 1010.2
20260507073903 17 299 9.7 16.1 0.00 0.00 0.00 75 1010.1
20260507072904 17 286 8.0 12.9 0.00 0.00 0.00 75 1010.1
20260507072403 17 294 6.4 12.9 0.00 0.00 0.00 75 1010.1
20260507071903 17 307 6.4 11.3 0.00 0.00 0.00 75 1010.1
20260507070903 17 267 6.4 9.7 0.00 0.00 0.00 75 1010.1
20260507064903 16 270 6.4 9.7 0.00 0.00 0.00 78 1010.1
20260507063902 16 234 4.8 9.7 0.00 0.00 0.00 78 1010.3
20260507063403 16 208 8.0 9.7 0.00 0.00 0.00 79 1010.2
20260507062903 16 224 4.8 9.7 0.00 0.00 0.00 79 1010.3
20260507062403 16 217 4.8 8.0 0.00 0.00 0.00 79 1010.1
20260507061904 15 230 3.2 8.0 0.00 0.00 0.00 79 1010.2
20260507061403 15 253 4.8 11.3 0.00 0.00 0.00 79 1010.2
20260507060903 15 247 4.8 9.7 0.00 0.00 0.00 79 1010.1
20260507060403 15 263 6.4 9.7 0.00 0.00 0.00 78 1010.0
20260507055903 15 253 4.8 9.7 0.00 0.00 0.00 79 1010.1
20260507055403 15 231 3.2 4.8 0.00 0.00 0.00 79 1009.9
20260507054903 15 215 3.2 4.8 0.00 0.00 0.00 79 1009.9
20260507054403 15 219 3.2 4.8 0.00 0.00 0.00 79 1009.9
20260507053903 15 266 3.2 8.0 0.00 0.00 0.00 79 1009.7
20260507053403 15 248 4.8 8.0 0.00 0.00 0.00 79 1009.8
20260507052903 15 261 3.2 4.8 0.00 0.00 0.00 79 1009.7
20260507052403 15 248 4.8 9.7 0.00 0.00 0.00 79 1009.6
20260507051403 15 235 4.8 8.0 0.00 0.00 0.00 80 1009.6
20260507050903 15 230 3.2 4.8 0.00 0.00 0.00 79 1009.5
20260507050403 15 242 1.6 4.8 0.00 0.00 0.00 79 1009.4
20260507045903 15 224 1.6 4.8 0.00 0.00 0.00 79 1009.5
20260507045403 15 239 3.2 4.8 0.00 0.00 0.00 79 1009.5
20260507044903 15 263 3.2 4.8 0.00 0.00 0.00 80 1009.5
20260507044404 15 220 4.8 8.0 0.00 0.00 0.00 80 1009.5
20260507043403 15 251 3.2 4.8 0.00 0.00 0.00 80 1009.4
20260507042903 15 207 3.2 8.0 0.00 0.00 0.00 80 1009.4
20260507041403 15 242 4.8 8.0 0.00 0.00 0.00 80 1009.5
20260507040903 15 237 4.8 8.0 0.00 0.00 0.00 79 1009.4
20260507040403 15 225 4.8 8.0 0.00 0.00 0.00 79 1009.4
20260507035904 16 234 4.8 9.7 0.00 0.00 0.00 79 1009.4
20260507035403 16 232 6.4 9.7 0.00 0.00 0.00 78 1009.5
20260507034904 16 223 3.2 8.0 0.00 0.00 0.00 78 1009.5
20260507034404 16 220 1.6 4.8 0.00 0.00 0.00 78 1009.5
20260507033903 16 220 4.8 9.7 0.00 0.00 0.00 78 1009.5
20260507033403 16 225 1.6 4.8 0.00 0.00 0.00 78 1009.4
20260507032403 16 216 1.6 3.2 0.00 0.00 0.00 78 1009.5
20260507031903 16 216 1.6 3.2 0.00 0.00 0.00 78 1009.5
20260507030903 15 215 3.2 4.8 0.00 0.00 0.00 79 1009.7
20260507030403 15 239 4.8 8.0 0.00 0.00 0.00 79 1009.7
20260507025903 15 251 3.2 4.8 0.00 0.00 0.00 79 1009.7
20260507025403 15 243 3.2 4.8 0.00 0.00 0.00 79 1009.7
20260507024903 15 253 3.2 4.8 0.00 0.00 0.00 80 1009.8
20260507023903 15 248 3.2 4.8 0.00 0.00 0.00 80 1009.8
20260507023403 15 233 1.6 4.8 0.00 0.00 0.00 80 1009.7
20260507022903 15 247 3.2 4.8 0.00 0.00 0.00 80 1009.7
20260507021903 15 238 6.4 8.0 0.00 0.00 0.00 80 1009.8
20260507020904 15 255 4.8 4.8 0.00 0.00 0.00 80 1009.7
20260507020404 15 261 4.8 8.0 0.00 0.00 0.00 80 1009.7
20260507015903 15 261 8.0 9.7 0.00 0.00 0.00 80 1009.7
20260507014903 15 255 3.2 4.8 0.00 0.00 0.00 81 1009.6
20260507014403 15 260 3.2 4.8 0.00 0.00 0.00 80 1009.7
20260507013903 15 240 3.2 4.8 0.00 0.00 0.00 81 1009.7
20260507013403 15 260 3.2 4.8 0.00 0.00 0.00 82 1009.7
20260507012904 15 251 3.2 4.8 0.00 0.00 0.00 82 1009.7
20260507012404 14 246 4.8 8.0 0.00 0.00 0.00 82 1009.7
20260507011904 14 243 3.2 8.0 0.00 0.00 0.00 82 1009.7
20260507011403 14 246 3.2 9.7 0.00 0.00 0.00 81 1009.7
20260507010403 15 253 4.8 8.0 0.00 0.00 0.00 80 1009.7
20260507005903 15 246 8.0 9.7 0.00 0.00 0.00 80 1009.7
20260507005404 15 260 4.8 8.0 0.00 0.00 0.00 79 1009.7
20260507004903 15 258 3.2 4.8 0.00 0.00 0.00 81 1009.7
20260507003903 15 241 3.2 4.8 0.00 0.00 0.00 80 1009.7
20260507003404 15 261 3.2 4.8 0.00 0.00 0.00 80 1009.8
20260507002904 15 257 3.2 4.8 0.00 0.00 0.00 79 1009.7
20260507002403 15 244 3.2 4.8 0.00 0.00 0.00 78 1009.9
20260507001903 15 232 1.6 3.2 0.00 0.00 0.00 79 1009.9
20260507001404 15 236 3.2 4.8 0.00 0.00 0.00 78 1009.9
20260507000904 16 245 3.2 4.8 0.00 0.00 0.00 78 1010.0
20260507000405 16 223 1.6 4.8 0.00 0.00 0.00 78 1009.9
20260506235903 16 223 0.0 1.6 0.00 0.00 0.00 78 1010.0
20260506235404 16 223 0.0 1.6 0.00 0.00 0.00 78 1010.2
20260506234903 16 223 1.6 3.2 0.00 0.00 0.00 78 1010.2
20260506234404 15 223 1.6 4.8 0.00 0.00 0.00 78 1010.3
20260506233403 15 223 1.6 4.8 0.00 0.00 0.00 77 1010.4
20260506232903 15 244 3.2 4.8 0.00 0.00 0.00 77 1010.3
20260506232404 15 249 4.8 4.8 0.00 0.00 0.00 77 1010.3
20260506231904 15 250 4.8 8.0 0.00 0.00 0.00 77 1010.2
20260506230903 15 249 4.8 8.0 0.00 0.00 0.00 77 1010.3
20260506225903 15 261 4.8 8.0 0.00 0.00 0.00 77 1010.4
20260506225403 15 270 4.8 8.0 0.00 0.00 0.00 77 1010.4
20260506224903 15 278 4.8 8.0 0.00 0.00 0.00 77 1010.5
20260506224403 15 275 4.8 8.0 0.00 0.00 0.00 77 1010.5
20260506223903 15 262 4.8 8.0 0.00 0.00 0.00 77 1010.6
20260506223403 15 265 8.0 11.3 0.00 0.00 0.00 77 1010.7
20260506222903 15 267 4.8 4.8 0.00 0.00 0.00 77 1010.6
20260506222403 15 275 4.8 8.0 0.00 0.00 0.00 78 1010.5
20260506221903 15 257 4.8 8.0 0.00 0.00 0.00 78 1010.5
20260506221403 15 253 6.4 8.0 0.00 0.00 0.00 78 1010.5
20260506220403 15 248 6.4 11.3 0.00 0.00 0.00 78 1010.6
20260506215903 15 259 8.0 11.3 0.00 0.00 0.00 78 1010.6
20260506215403 15 251 8.0 9.7 0.00 0.00 0.00 78 1010.6
20260506214903 15 265 8.0 9.7 0.00 0.00 0.00 78 1010.5
20260506214403 15 268 4.8 9.7 0.00 0.00 0.00 78 1010.5
20260506213904 15 249 8.0 9.7 0.00 0.00 0.00 78 1010.5
20260506213404 15 251 4.8 8.0 0.00 0.00 0.00 78 1010.6
20260506212403 16 253 4.8 8.0 0.00 0.00 0.00 77 1010.4
20260506211904 16 246 3.2 4.8 0.00 0.00 0.00 76 1010.3
20260506211403 16 244 3.2 4.8 0.00 0.00 0.00 76 1010.3
20260506210403 16 192 1.6 4.8 0.00 0.00 0.00 75 1010.2
20260506205904 17 146 0.0 1.6 0.00 0.00 0.00 75 1010.2
20260506205403 17 146 1.6 1.6 0.00 0.00 0.00 75 1010.2
20260506204903 17 146 0.0 3.2 0.00 0.00 0.00 75 1010.1
20260506204403 17 141 1.6 3.2 0.00 0.00 0.00 75 1009.9
20260506203903 17 132 0.0 1.6 0.00 0.00 0.00 75 1009.8
20260506203403 17 132 0.0 3.2 0.00 0.00 0.00 75 1009.8
20260506202904 17 132 1.6 3.2 0.00 0.00 0.00 74 1009.8
20260506202404 17 132 3.2 4.8 0.00 0.00 0.00 74 1009.8
20260506201903 17 131 3.2 8.0 0.00 0.00 0.00 74 1009.8
20260506201403 17 140 8.0 9.7 0.00 0.00 0.00 73 1009.8
20260506200903 17 140 4.8 8.0 0.00 0.00 0.00 72 1009.8
20260506200403 17 132 3.2 8.0 0.00 0.00 0.00 72 1009.7
20260506195904 17 151 4.8 8.0 0.00 0.00 0.00 71 1009.6
20260506195403 17 134 6.4 8.0 0.00 0.00 0.00 71 1009.4
20260506194903 17 131 6.4 9.7 0.00 0.00 0.00 71 1009.3
20260506193403 17 136 4.8 8.0 0.00 0.00 0.00 69 1009.3
20260506192903 17 134 4.8 8.0 0.00 0.00 0.00 69 1009.3
20260506192403 17 135 4.8 8.0 0.00 0.00 0.00 69 1009.2
20260506191903 17 129 3.2 8.0 0.00 0.00 0.00 69 1009.2
20260506191404 17 117 6.4 9.7 0.00 0.00 0.00 69 1009.1
20260506190903 17 132 6.4 9.7 0.00 0.00 0.00 68 1009.1
20260506190403 18 138 6.4 9.7 0.00 0.00 0.00 68 1009.2
20260506185903 18 135 4.8 8.0 0.00 0.00 0.00 68 1009.2
20260506184903 18 132 8.0 11.3 0.00 0.00 0.00 67 1009.2
20260506184404 18 116 8.0 9.7 0.00 0.00 0.00 66 1009.2
20260506183903 18 129 3.2 9.7 0.00 0.00 0.00 66 1009.2
20260506182904 18 117 8.0 12.9 0.00 0.00 0.00 65 1009.1
20260506182403 18 114 4.8 9.7 0.00 0.00 0.00 66 1009.0
20260506181904 18 76 4.8 9.7 0.00 0.00 0.00 66 1009.0
20260506181404 18 122 9.7 11.3 0.00 0.00 0.00 66 1009.0
20260506180904 18 108 8.0 9.7 0.00 0.00 0.00 66 1009.1
20260506175904 18 113 8.0 11.3 0.00 0.00 0.00 66 1008.9
20260506175404 18 105 8.0 14.5 0.00 0.05 0.00 66 1009.0
20260506174904 18 125 4.8 12.9 0.00 0.08 0.00 66 1008.8
20260506174404 18 106 8.0 14.5 0.00 0.08 0.00 66 1008.9
20260506173903 18 109 9.7 14.5 0.00 0.08 0.00 65 1008.9
20260506173404 18 89 9.7 14.5 0.00 0.08 0.00 64 1008.9
20260506172904 18 113 8.0 16.1 0.00 0.08 0.00 64 1008.9
20260506172403 18 94 11.3 14.5 0.00 0.08 0.00 64 1008.9
20260506171903 18 98 9.7 19.3 0.00 0.08 0.00 65 1008.9
20260506171403 18 91 9.7 19.3 0.00 0.08 0.00 65 1008.9
20260506170904 18 84 9.7 19.3 0.00 0.08 0.00 66 1008.9
20260506170403 18 85 9.7 19.3 0.00 0.08 0.00 66 1008.9
20260506165904 18 76 9.7 19.3 0.00 0.08 0.00 66 1008.9
20260506165404 18 93 11.3 19.3 0.00 0.08 0.00 65 1009.0
20260506164903 18 90 12.9 19.3 0.00 0.08 0.00 67 1008.9
20260506164404 18 73 8.0 19.3 0.00 0.08 0.00 67 1009.0
20260506163904 18 84 12.9 19.3 0.00 0.08 0.00 66 1009.1
20260506163404 18 80 14.5 19.3 0.00 0.08 0.00 67 1009.1
20260506162903 18 87 11.3 19.3 0.00 0.08 0.00 68 1009.1
20260506162403 18 78 14.5 19.3 0.00 0.08 0.00 67 1009.2
20260506161403 18 74 11.3 20.9 0.00 0.08 0.00 68 1009.0
20260506160903 18 74 12.9 19.3 0.00 0.08 0.00 66 1009.0
20260506160404 18 98 12.9 19.3 0.00 0.08 0.00 68 1009.0
20260506155904 18 75 14.5 20.9 0.00 0.08 0.00 68 1009.0
20260506155403 18 80 9.7 20.9 0.00 0.08 0.00 67 1008.9
20260506154904 18 81 14.5 19.3 0.00 0.08 0.00 68 1009.0
20260506153903 18 77 11.3 22.5 0.00 0.08 0.00 66 1009.0
20260506153404 18 74 11.3 20.9 0.00 0.08 0.00 66 1009.1
20260506152404 18 85 14.5 20.9 0.00 0.08 0.00 67 1009.1
20260506151404 18 84 11.3 19.3 0.00 0.08 0.00 67 1009.0
20260506150404 18 74 11.3 19.3 0.00 0.08 0.00 67 1009.1
20260506145903 18 83 12.9 20.9 0.00 0.08 0.00 68 1009.1
20260506145404 18 87 14.5 19.3 0.00 0.08 0.00 68 1009.1
20260506144903 18 80 11.3 19.3 0.00 0.08 0.00 67 1009.2
20260506144403 18 88 11.3 19.3 0.00 0.08 0.00 67 1009.3
20260506143903 18 87 11.3 19.3 0.00 0.08 0.00 66 1009.4
20260506143403 18 69 11.3 19.3 0.00 0.08 0.00 66 1009.4